Location: Fort Worth, Tx
(32.7431°N, 97.3695°W)
Time: 01:41:13
(UTC-04:00)

A-11 Canister half - Pass Details

Date: 01 March 2024
Orbit: 1525 x 1683 km, 47.3° (Epoch: 24 April)

Event Time Altitude Azimuth Distance (km) Brightness Sun altitude
Exits shadow 04:25:22 13° 148° (SSE) 3,495 10.9 -44.4°
Drops below altitude 10° 04:26:06 10° 147° (SSE) 3,724 11.0 -44.2°
Sets 04:29:14 0° 144° (SE) 4,724 11.7 -43.6°
